Content
SEND FEEDBACK

Daily
Averages
Monthly
Summary
United States of America

STATEN ISLAND, NEW YORK


Home > North America > United States > New York
Elevation: 46 meters     Latitude: 40 35N     Longitude: 074 09W

WEATHER
 
SELECT A DAY
Number of Records: 189,740;   Date Range: 1/1/95 - 8/12/14
 
SHARE

PRINT THIS DATA

[ ← Previous Day ]
WEATHER ALMANAC - 6 MARCH, 2013
[ Next Day → ]
[ °F ]   °C
Weather ElementAverageHighLow
Temperature4.8 °C6 °C (1:32 pm)3.9 °C (8:51 pm)
Dewpoint-0.7 °C1.7 °C (11:51 am)-3.3 °C (11:51 pm)
Humidity68.2 %79 % (11:51 am)58 % (6:51 pm)
Barometer1012.2 hPa1014.6 hPa (1:51 am)1010.8 hPa (2:51 pm)
Wind Speed34 km/h48.1 km/h (8:51 pm)
Wind Gust76 km/h (1:32 pm)
Weather ElementAverage
Visibility15.9 km
Wind DirectionNE (47.5 °)

Weather ElementTotal
Precipitation---
Heating Degree Days13.4 (Base 18.3)
Averaged from 28 records on 6 March, 2013
WEATHER CONDITIONS BREAKOUT
WIND DIRECTION BREAKOUT
WEATHER BY HOUR - 6 MARCH, 2013
[ °F ]   °C
Local TimeTemperatureDewpointHumidityBarometerVisibilityWind DirectionWind SpeedGust SpeedPrecipitationEventsConditions
1:51 AM5 °C0 °C70 %1014.6 hPa16.1 kmEast (100°)11.1 km/h27.8 km/hOvercast
2:33 AM5 °C0 °C70 %1013.9 hPa16.1 kmEast (80°)18.5 km/hOvercast
2:51 AM4.4 °C0 °C73 %1013.5 hPa16.1 kmENE (70°)20.4 km/hOvercast
3:30 AM4 °C0 °C75 %1012.9 hPa16.1 kmENE (70°)25.9 km/h35.2 km/hOvercast
3:51 AM4.4 °C-0.6 °C70 %1012.5 hPa16.1 kmENE (70°)20.4 km/h31.5 km/hOvercast
4:51 AM4.4 °C-0.6 °C70 %1012.9 hPa16.1 kmENE (70°)27.8 km/h44.4 km/hOvercast
5:51 AM4.4 °C-0.6 °C70 %1012.5 hPa16.1 kmENE (70°)27.8 km/h44.4 km/hOvercast
6:51 AM4.4 °C-0.6 °C70 %1012.2 hPa16.1 kmNE (50°)29.6 km/h44.4 km/hOvercast
7:51 AM4.4 °C0 °C73 %1012.5 hPa16.1 kmENE (60°)33.3 km/h51.8 km/hOvercast
8:51 AM4.4 °C0.6 °C77 %1012.5 hPa16.1 kmNE (50°)29.6 km/h48.1 km/hOvercast
9:51 AM5 °C0 °C70 %1012.2 hPa16.1 kmNE (50°)33.3 km/h55.5 km/hOvercast
10:51 AM5 °C1.1 °C76 %1011.5 hPa16.1 kmNE (50°)35.2 km/h51.8 km/h0 mmOvercast
11:51 AM5 °C1.7 °C79 %1011.2 hPa12.9 kmNE (50°)27.8 km/h48.1 km/h0 mmRainLight Rain
12:51 PM5.6 °C0.6 °C70 %1011.2 hPa16.1 kmENE (60°)35.2 km/h61.2 km/h0 mmRainLight Rain
1:32 PM6 °C-1 °C61 %1011.2 hPa14.5 kmNE (50°)46.3 km/h76 km/h0 mm
1:51 PM5.6 °C-1.1 °C62 %1011.2 hPa14.5 kmNE (50°)42.6 km/h64.9 km/h0 mmRainLight Rain
2:51 PM5.6 °C-1.1 °C62 %1010.8 hPa16.1 kmNE (50°)46.3 km/h64.9 km/h0 mmOvercast
3:30 PM5 °C0 °C70 %1011.2 hPa16.1 kmNE (40°)31.5 km/h50.1 km/h0 mmRainLight Rain
3:51 PM4.4 °C0.6 °C77 %1011.5 hPa16.1 kmNNE (30°)40.7 km/h55.5 km/h0 mmRainLight Rain
4:15 PM5 °C-1 °C65 %1011.5 hPa16.1 kmNE (40°)31.5 km/h44.4 km/h0 mmOvercast
4:51 PM5 °C-1.1 °C65 %1011.5 hPa16.1 kmNNE (20°)38.9 km/h53.8 km/h0 mmOvercast
5:51 PM5.6 °C-1.7 °C60 %1011.5 hPa16.1 kmNNE (30°)42.6 km/h64.9 km/hOvercast
6:51 PM5.6 °C-2.2 °C58 %1012.5 hPa16.1 kmNNE (20°)46.3 km/h62.9 km/h0 mmRainLight Rain
7:51 PM4.4 °C-2.2 °C63 %1012.9 hPa16.1 kmNNE (20°)46.3 km/h64.9 km/h0 mmOvercast
8:51 PM3.9 °C-1.7 °C67 %1013.5 hPa16.1 kmNNE (20°)48.1 km/h62.9 km/h0 mmRainLight Rain
9:51 PM3.9 °C-2.2 °C65 %1013.2 hPa16.1 kmNNE (20°)35.2 km/h61.2 km/h0 mmOvercast
10:51 PM3.9 °C-2.8 °C62 %1013.5 hPa16.1 kmNNE (20°)40.7 km/h53.8 km/h0 mmRainLight Rain
11:51 PM3.9 °C-3.3 °C60 %1013.5 hPa16.1 kmNNE (20°)37 km/h55.5 km/h0 mmRainLight Rain
Hourly data recorded from KEWR, located 0 kilometers away from Staten Island, New York







STORIES FROM OUR PARTNERS